Orbital Elements
Epoch 2006 May 25.0 TT = JDT 2453880.5
T 2006 June 6.78287 TT MPC
q 1.9737575 (2000.0) P Q
n 0.13630822 Peri. 18.53268 +0.98840654 -0.00699718
a 3.7392804 Node 339.94674 -0.10852470 +0.66605234
e 0.4721558 Incl. 26.25210 +0.10618333 +0.74587219
P 7.23
From 18 observations 1991-2006, mean residual 0".82. Nongravitational
parameters A1 = +2.32 +/- 0.53, A2 = -0.6508 +/- 0.0190.
|